KRF69R EGLL-EDDF

Flight info

Callsign KRF69R
Flight time 1h 0m
Altitude 39000
Route DET L6 DVR UL9 KONAN UL607 SPI T180 NIVNU T847 IMCOM IMCOM1A
Aircraft A339/H-SADE1E2E3GHIJ3J5M1P2RWXY/LB2D1

Departure

Time 2026-05-05 16:53
Airport London Heathrow Airport (EGLL)

Arrival

Time 2026-05-05 17:54
Airport Frankfurt Main Airport (EDDF)
Time Latitude Longitude Altitude Speed Heading
2026-05-05 16:16 51.46242 -0.45664 95 ft 0 kts 287°
2026-05-05 16:41 51.46238 -0.45647 92 ft 3 kts 287°
2026-05-05 16:41 51.46232 -0.45615 93 ft 4 kts 288°
2026-05-05 16:41 51.46225 -0.45578 92 ft 4 kts 288°
2026-05-05 16:42 51.46216 -0.45535 90 ft 4 kts 288°
2026-05-05 16:42 51.46206 -0.45494 93 ft 3 kts 300°
2026-05-05 16:42 51.46191 -0.45451 92 ft 4 kts 317°
2026-05-05 16:42 51.46188 -0.45447 91 ft 0 kts 322°
2026-05-05 16:45 51.46195 -0.45455 92 ft 2 kts 322°
2026-05-05 16:46 51.46217 -0.45480 90 ft 5 kts 323°
2026-05-05 16:46 51.46250 -0.45518 93 ft 7 kts 325°
2026-05-05 16:46 51.46296 -0.45568 93 ft 9 kts 325°
2026-05-05 16:46 51.46321 -0.45656 93 ft 10 kts 280°
2026-05-05 16:47 51.46324 -0.45775 92 ft 12 kts 270°
2026-05-05 16:47 51.46324 -0.45912 92 ft 13 kts 270°
2026-05-05 16:47 51.46323 -0.46070 92 ft 15 kts 269°
2026-05-05 16:47 51.46322 -0.46245 92 ft 17 kts 271°
2026-05-05 16:48 51.46322 -0.46437 92 ft 18 kts 270°
2026-05-05 16:48 51.46321 -0.46643 92 ft 19 kts 270°
2026-05-05 16:48 51.46323 -0.46862 92 ft 20 kts 269°
2026-05-05 16:48 51.46322 -0.47010 92 ft 20 kts 270°
2026-05-05 16:49 51.46322 -0.47189 92 ft 14 kts 269°
2026-05-05 16:49 51.46325 -0.47341 94 ft 14 kts 279°
2026-05-05 16:49 51.46339 -0.47494 95 ft 14 kts 271°
2026-05-05 16:49 51.46326 -0.47657 97 ft 15 kts 248°
2026-05-05 16:50 51.46271 -0.47820 97 ft 18 kts 240°
2026-05-05 16:50 51.46251 -0.48044 94 ft 16 kts 269°
2026-05-05 16:50 51.46251 -0.48241 91 ft 20 kts 270°
2026-05-05 16:50 51.46250 -0.48375 90 ft 6 kts 269°
2026-05-05 16:51 51.46250 -0.48444 91 ft 6 kts 270°
2026-05-05 16:51 51.46250 -0.48517 92 ft 7 kts 270°
2026-05-05 16:51 51.46258 -0.48603 96 ft 9 kts 286°
2026-05-05 16:51 51.46295 -0.48693 94 ft 11 kts 311°
2026-05-05 16:52 51.46361 -0.48744 96 ft 10 kts 348°
2026-05-05 16:52 51.46424 -0.48750 96 ft 9 kts 358°
2026-05-05 16:52 51.46469 -0.48701 98 ft 9 kts 62°
2026-05-05 16:52 51.46478 -0.48561 94 ft 19 kts 88°
2026-05-05 16:53 51.46480 -0.47947 93 ft 101 kts 90°
2026-05-05 16:53 51.46488 -0.46382 107 ft 174 kts 90°
2026-05-05 16:53 51.46455 -0.44284 608 ft 193 kts 88°
2026-05-05 16:53 51.46467 -0.42228 1840 ft 177 kts 86°
2026-05-05 16:54 51.46237 -0.40229 2732 ft 193 kts 110°
2026-05-05 16:54 51.45549 -0.38251 3388 ft 213 kts 121°
2026-05-05 16:54 51.44734 -0.36172 3915 ft 233 kts 112°
2026-05-05 16:54 51.44100 -0.33651 4414 ft 255 kts 108°
2026-05-05 16:55 51.43494 -0.30900 5120 ft 265 kts 107°
2026-05-05 16:55 51.42926 -0.28063 5991 ft 270 kts 103°
2026-05-05 16:55 51.42519 -0.25096 6832 ft 275 kts 100°
2026-05-05 16:55 51.42116 -0.22084 7723 ft 279 kts 100°
2026-05-05 16:56 51.41701 -0.19019 8593 ft 284 kts 101°
2026-05-05 16:56 51.41276 -0.15908 9506 ft 289 kts 101°
2026-05-05 16:56 51.40844 -0.12782 10321 ft 296 kts 101°
2026-05-05 16:56 51.40376 -0.09444 10688 ft 319 kts 101°
2026-05-05 16:57 51.39869 -0.05855 11069 ft 340 kts 102°
2026-05-05 16:57 51.39341 -0.02134 11883 ft 345 kts 102°
2026-05-05 16:57 51.38808 0.01615 12919 ft 344 kts 102°
2026-05-05 16:57 51.38274 0.05366 13845 ft 348 kts 102°
2026-05-05 16:58 51.37732 0.09167 14595 ft 354 kts 102°
2026-05-05 16:58 51.37175 0.13040 15348 ft 360 kts 102°
2026-05-05 16:58 51.36606 0.16959 16155 ft 364 kts 102°
2026-05-05 16:58 51.36030 0.20929 16932 ft 369 kts 102°
2026-05-05 16:59 51.35450 0.24958 17709 ft 374 kts 102°
2026-05-05 16:59 51.34874 0.28975 18454 ft 379 kts 102°
2026-05-05 16:59 51.34288 0.33047 19158 ft 383 kts 102°
2026-05-05 16:59 51.33684 0.37225 19874 ft 388 kts 102°
2026-05-05 17:00 51.33074 0.41436 20673 ft 390 kts 102°
2026-05-05 17:00 51.32457 0.45675 21583 ft 394 kts 102°
2026-05-05 17:00 51.31840 0.49913 22301 ft 399 kts 102°
2026-05-05 17:00 51.31205 0.54260 23042 ft 404 kts 103°
2026-05-05 17:01 51.30561 0.58656 23777 ft 408 kts 103°
2026-05-05 17:01 51.29806 0.63039 24444 ft 411 kts 107°
2026-05-05 17:01 51.29000 0.67436 25140 ft 414 kts 107°
2026-05-05 17:01 51.28201 0.71809 25794 ft 417 kts 107°
2026-05-05 17:02 51.27385 0.76278 26457 ft 421 kts 107°
2026-05-05 17:02 51.26560 0.80782 27118 ft 424 kts 108°
2026-05-05 17:02 51.25724 0.85327 27741 ft 429 kts 108°
2026-05-05 17:02 51.24878 0.89908 28370 ft 432 kts 108°
2026-05-05 17:03 51.24023 0.94530 28989 ft 436 kts 108°
2026-05-05 17:03 51.23158 0.99193 29628 ft 440 kts 108°
2026-05-05 17:03 51.22284 1.03888 30210 ft 444 kts 108°
2026-05-05 17:03 51.21403 1.08615 30822 ft 446 kts 108°
2026-05-05 17:04 51.20515 1.13373 31434 ft 449 kts 109°
2026-05-05 17:04 51.19617 1.18166 31986 ft 453 kts 108°
2026-05-05 17:04 51.18720 1.22938 32530 ft 457 kts 109°
2026-05-05 17:04 51.17805 1.27795 33037 ft 459 kts 109°
2026-05-05 17:05 51.16894 1.32691 33456 ft 463 kts 107°
2026-05-05 17:05 51.16245 1.37652 33886 ft 466 kts 100°
2026-05-05 17:05 51.15931 1.42789 34307 ft 467 kts 96°
2026-05-05 17:05 51.15698 1.47948 34700 ft 467 kts 96°
2026-05-05 17:06 51.15454 1.53118 35055 ft 469 kts 96°
2026-05-05 17:06 51.15203 1.58302 35424 ft 470 kts 96°
2026-05-05 17:06 51.14946 1.63494 35770 ft 471 kts 96°
2026-05-05 17:06 51.14688 1.68696 36121 ft 472 kts 97°
2026-05-05 17:07 51.14430 1.73843 36455 ft 473 kts 96°
2026-05-05 17:07 51.14166 1.79074 36799 ft 474 kts 96°
2026-05-05 17:07 51.13900 1.84313 37120 ft 476 kts 97°
2026-05-05 17:07 51.13628 1.89568 37474 ft 476 kts 96°
2026-05-05 17:08 51.13356 1.94829 37782 ft 478 kts 97°
2026-05-05 17:08 51.13080 2.00104 38085 ft 479 kts 97°
2026-05-05 17:08 51.12799 2.05395 38435 ft 480 kts 97°
2026-05-05 17:08 51.12517 2.10705 38654 ft 483 kts 97°
2026-05-05 17:09 51.12231 2.16025 38872 ft 483 kts 97°
2026-05-05 17:09 51.11947 2.21267 38911 ft 481 kts 97°
2026-05-05 17:09 51.11365 2.31859 38899 ft 479 kts 97°
2026-05-05 17:10 51.10775 2.42437 38906 ft 480 kts 97°
2026-05-05 17:10 51.10176 2.53014 38900 ft 480 kts 97°
2026-05-05 17:11 51.09481 2.63484 38900 ft 478 kts 102°
2026-05-05 17:11 51.07932 2.73741 38900 ft 476 kts 109°
2026-05-05 17:12 51.06090 2.83841 38894 ft 475 kts 109°
2026-05-05 17:12 51.04257 2.93925 38900 ft 474 kts 108°
2026-05-05 17:13 51.02415 3.03982 38893 ft 474 kts 108°
2026-05-05 17:13 51.00577 3.13966 38884 ft 474 kts 108°
2026-05-05 17:14 50.98717 3.24004 38871 ft 474 kts 109°
2026-05-05 17:14 50.96849 3.34035 38877 ft 473 kts 109°
2026-05-05 17:15 50.94977 3.44033 38871 ft 473 kts 109°
2026-05-05 17:15 50.93096 3.54022 38870 ft 473 kts 109°
2026-05-05 17:16 50.91222 3.63929 38860 ft 472 kts 109°
2026-05-05 17:16 50.89310 3.73893 38860 ft 472 kts 109°
2026-05-05 17:17 50.87387 3.83826 38868 ft 472 kts 109°
2026-05-05 17:17 50.85457 3.93753 38868 ft 472 kts 109°
2026-05-05 17:18 50.83533 4.03606 38873 ft 472 kts 109°
2026-05-05 17:18 50.81589 4.13507 38876 ft 472 kts 110°
2026-05-05 17:19 50.79634 4.23416 38876 ft 472 kts 110°
2026-05-05 17:19 50.77681 4.33269 38879 ft 469 kts 110°
2026-05-05 17:20 50.75720 4.43104 38880 ft 470 kts 110°
2026-05-05 17:20 50.73763 4.52870 38879 ft 470 kts 110°
2026-05-05 17:21 50.71788 4.62706 38877 ft 470 kts 109°
2026-05-05 17:22 50.68930 4.77497 38862 ft 471 kts 109°
2026-05-05 17:22 50.67013 4.87368 38853 ft 471 kts 109°
2026-05-05 17:23 50.65072 4.97150 38854 ft 471 kts 110°
2026-05-05 17:23 50.63044 5.06961 38855 ft 471 kts 110°
2026-05-05 17:24 50.61014 5.16760 38849 ft 471 kts 110°
2026-05-05 17:24 50.58981 5.26555 38852 ft 471 kts 110°
2026-05-05 17:25 50.56956 5.36276 38849 ft 471 kts 110°
2026-05-05 17:25 50.54918 5.46010 38849 ft 471 kts 111°
2026-05-05 17:26 50.52861 5.55788 38850 ft 471 kts 111°
2026-05-05 17:26 50.50818 5.65546 38842 ft 471 kts 109°
2026-05-05 17:27 50.48990 5.75431 38839 ft 471 kts 108°
2026-05-05 17:27 50.47196 5.85210 38606 ft 466 kts 109°
2026-05-05 17:27 50.46287 5.90081 38165 ft 464 kts 109°
2026-05-05 17:28 50.45374 5.94932 37667 ft 462 kts 109°
2026-05-05 17:28 50.44461 5.99759 37003 ft 462 kts 109°
2026-05-05 17:28 50.43543 6.04593 36174 ft 462 kts 109°
2026-05-05 17:28 50.42626 6.09414 35387 ft 461 kts 109°
2026-05-05 17:29 50.41711 6.14213 34618 ft 458 kts 109°
2026-05-05 17:29 50.40801 6.18977 33897 ft 453 kts 109°
2026-05-05 17:29 50.39898 6.23687 32990 ft 451 kts 109°
2026-05-05 17:29 50.38992 6.28394 32050 ft 451 kts 109°
2026-05-05 17:30 50.38095 6.33035 31151 ft 452 kts 109°
2026-05-05 17:30 50.37169 6.37822 30265 ft 454 kts 108°
2026-05-05 17:30 50.36433 6.42573 29345 ft 457 kts 102°
2026-05-05 17:30 50.36026 6.47533 28360 ft 460 kts 97°
2026-05-05 17:31 50.35738 6.52536 27422 ft 463 kts 97°
2026-05-05 17:31 50.35429 6.57557 26519 ft 465 kts 97°
2026-05-05 17:31 50.35107 6.62614 25730 ft 466 kts 97°
2026-05-05 17:31 50.34783 6.67645 25071 ft 463 kts 97°
2026-05-05 17:32 50.34460 6.72635 24454 ft 457 kts 97°
2026-05-05 17:32 50.34145 6.77518 23749 ft 445 kts 97°
2026-05-05 17:32 50.33792 6.82190 23082 ft 431 kts 101°
2026-05-05 17:32 50.33142 6.86650 22378 ft 424 kts 107°
2026-05-05 17:33 50.32166 6.90999 21667 ft 423 kts 114°
2026-05-05 17:33 50.30935 6.95170 20955 ft 422 kts 116°
2026-05-05 17:33 50.29689 6.99320 20272 ft 421 kts 116°
2026-05-05 17:33 50.28451 7.03467 19608 ft 420 kts 116°
2026-05-05 17:34 50.27223 7.07591 18955 ft 418 kts 116°
2026-05-05 17:34 50.25997 7.11700 18319 ft 416 kts 116°
2026-05-05 17:34 50.24779 7.15773 17631 ft 413 kts 116°
2026-05-05 17:34 50.23565 7.19821 16915 ft 410 kts 116°
2026-05-05 17:35 50.22360 7.23831 16220 ft 406 kts 116°
2026-05-05 17:35 50.21180 7.27752 15545 ft 402 kts 116°
2026-05-05 17:35 50.19996 7.31679 14879 ft 398 kts 116°
2026-05-05 17:35 50.18956 7.35666 14214 ft 394 kts 111°
2026-05-05 17:36 50.18017 7.39666 13581 ft 392 kts 112°
2026-05-05 17:36 50.17080 7.43623 12857 ft 384 kts 112°
2026-05-05 17:36 50.16167 7.47455 12175 ft 370 kts 112°
2026-05-05 17:36 50.15281 7.51155 11486 ft 358 kts 112°
2026-05-05 17:37 50.14414 7.54765 10819 ft 357 kts 112°
2026-05-05 17:37 50.13540 7.58396 10160 ft 356 kts 112°
2026-05-05 17:37 50.12673 7.61997 9588 ft 353 kts 112°
2026-05-05 17:37 50.11830 7.65500 9304 ft 339 kts 112°
2026-05-05 17:38 50.10897 7.68760 8918 ft 328 kts 121°
2026-05-05 17:38 50.09650 7.71742 8831 ft 334 kts 127°
2026-05-05 17:38 50.08322 7.74692 8817 ft 332 kts 127°
2026-05-05 17:38 50.07006 7.77655 8820 ft 333 kts 127°
2026-05-05 17:39 50.05695 7.80619 8815 ft 331 kts 127°
2026-05-05 17:39 50.04356 7.83631 8822 ft 352 kts 127°
2026-05-05 17:39 50.02953 7.86779 8825 ft 353 kts 127°
2026-05-05 17:39 50.01553 7.89922 8823 ft 353 kts 127°
2026-05-05 17:40 50.00309 7.93213 8826 ft 357 kts 113°
2026-05-05 17:40 49.99821 7.97008 8826 ft 362 kts 92°
2026-05-05 17:40 50.00200 8.00808 8830 ft 364 kts 73°
2026-05-05 17:40 50.01158 8.04458 8833 ft 366 kts 66°
2026-05-05 17:41 50.02243 8.08038 8833 ft 366 kts 66°
2026-05-05 17:41 50.03272 8.11590 8838 ft 365 kts 67°
2026-05-05 17:41 50.04251 8.15232 8839 ft 365 kts 69°
2026-05-05 17:41 50.05183 8.18907 8842 ft 365 kts 70°
2026-05-05 17:42 50.06090 8.22598 8843 ft 365 kts 70°
2026-05-05 17:42 50.06984 8.26288 8841 ft 363 kts 70°
2026-05-05 17:42 50.07868 8.29957 8842 ft 362 kts 71°
2026-05-05 17:42 50.08753 8.33630 8840 ft 362 kts 71°
2026-05-05 17:43 50.09633 8.37285 8639 ft 360 kts 71°
2026-05-05 17:43 50.10509 8.40928 8202 ft 357 kts 70°
2026-05-05 17:43 50.11373 8.44533 7556 ft 354 kts 71°
2026-05-05 17:43 50.12225 8.48093 6981 ft 348 kts 71°
2026-05-05 17:44 50.13069 8.51620 6315 ft 346 kts 71°
2026-05-05 17:44 50.13907 8.55132 5632 ft 344 kts 71°
2026-05-05 17:44 50.14717 8.58526 5302 ft 331 kts 71°
2026-05-05 17:44 50.15494 8.61794 5103 ft 312 kts 70°
2026-05-05 17:45 50.16225 8.64869 5003 ft 291 kts 71°
2026-05-05 17:45 50.16901 8.67718 4995 ft 277 kts 71°
2026-05-05 17:45 50.17574 8.70562 4996 ft 279 kts 71°
2026-05-05 17:45 50.18245 8.73404 4997 ft 279 kts 71°
2026-05-05 17:46 50.18914 8.76236 4995 ft 279 kts 71°
2026-05-05 17:46 50.19587 8.79079 4994 ft 278 kts 71°
2026-05-05 17:46 50.20256 8.81912 4990 ft 279 kts 71°
2026-05-05 17:46 50.20922 8.84745 4989 ft 278 kts 72°
2026-05-05 17:47 50.21260 8.87660 4988 ft 275 kts 95°
2026-05-05 17:47 50.20742 8.90461 4943 ft 265 kts 123°
2026-05-05 17:47 50.19526 8.92434 4853 ft 247 kts 152°
2026-05-05 17:47 50.17979 8.93151 4697 ft 229 kts 181°
2026-05-05 17:48 50.16477 8.92547 4307 ft 225 kts 213°
2026-05-05 17:48 50.15301 8.90973 4049 ft 222 kts 224°
2026-05-05 17:48 50.14224 8.89256 3999 ft 227 kts 228°
2026-05-05 17:48 50.13161 8.87458 3990 ft 223 kts 230°
2026-05-05 17:49 50.12317 8.85427 3998 ft 225 kts 243°
2026-05-05 17:49 50.11699 8.83196 3994 ft 224 kts 249°
2026-05-05 17:49 50.11161 8.80901 3994 ft 225 kts 249°
2026-05-05 17:49 50.10618 8.78639 3964 ft 224 kts 249°
2026-05-05 17:50 50.10084 8.76396 3711 ft 224 kts 249°
2026-05-05 17:50 50.09533 8.74089 3377 ft 223 kts 249°
2026-05-05 17:50 50.09019 8.71942 3056 ft 205 kts 250°
2026-05-05 17:50 50.08544 8.69947 2783 ft 189 kts 250°
2026-05-05 17:51 50.08104 8.68109 2537 ft 176 kts 250°
2026-05-05 17:51 50.07670 8.66289 2276 ft 179 kts 250°
2026-05-05 17:51 50.07239 8.64487 2018 ft 177 kts 250°
2026-05-05 17:51 50.06821 8.62736 1759 ft 164 kts 250°
2026-05-05 17:52 50.06450 8.61187 1520 ft 143 kts 250°
2026-05-05 17:52 50.06107 8.59749 1332 ft 141 kts 250°
2026-05-05 17:52 50.05774 8.58358 1125 ft 140 kts 250°
2026-05-05 17:52 50.05438 8.56951 906 ft 136 kts 250°
2026-05-05 17:53 50.05104 8.55548 710 ft 135 kts 249°
2026-05-05 17:53 50.04768 8.54159 527 ft 141 kts 249°
2026-05-05 17:53 50.04442 8.52769 369 ft 133 kts 249°
2026-05-05 17:53 50.04174 8.51666 353 ft 84 kts 250°
2026-05-05 17:54 50.03997 8.50934 333 ft 67 kts 250°
2026-05-05 17:54 50.03873 8.50464 327 ft 31 kts 231°
2026-05-05 17:54 50.03751 8.50264 326 ft 20 kts 218°
2026-05-05 17:54 50.03652 8.50201 326 ft 11 kts 153°
2026-05-05 17:55 50.03634 8.50279 329 ft 6 kts 92°
2026-05-05 17:55 50.03639 8.50323 329 ft 3 kts 79°
2026-05-05 17:55 50.03647 8.50364 331 ft 11 kts 72°
2026-05-05 17:55 50.03675 8.50483 331 ft 11 kts 69°
2026-05-05 17:56 50.03698 8.50576 331 ft 8 kts 69°
2026-05-05 17:56 50.03718 8.50659 334 ft 11 kts 69°
2026-05-05 17:56 50.03742 8.50762 332 ft 9 kts 70°
2026-05-05 17:56 50.03759 8.50836 346 ft 6 kts 70°
2026-05-05 17:57 50.03802 8.51018 331 ft 24 kts 70°
2026-05-05 17:57 50.03855 8.51240 332 ft 20 kts 69°
2026-05-05 17:57 50.03901 8.51423 334 ft 16 kts 69°
2026-05-05 17:57 50.03935 8.51571 347 ft 13 kts 70°
2026-05-05 17:58 50.03972 8.51727 349 ft 18 kts 70°
2026-05-05 17:58 50.04015 8.51904 349 ft 16 kts 70°
2026-05-05 17:58 50.04049 8.52049 350 ft 13 kts 70°
2026-05-05 17:58 50.04078 8.52167 350 ft 10 kts 69°
2026-05-05 17:59 50.04108 8.52290 354 ft 17 kts 69°
2026-05-05 17:59 50.04157 8.52497 356 ft 23 kts 70°
2026-05-05 17:59 50.04215 8.52742 358 ft 23 kts 70°
2026-05-05 17:59 50.04267 8.52958 359 ft 19 kts 69°
2026-05-05 18:00 50.04309 8.53128 364 ft 15 kts 69°
2026-05-05 18:00 50.04348 8.53294 363 ft 19 kts 69°
2026-05-05 18:00 50.04390 8.53485 367 ft 18 kts 77°
2026-05-05 18:00 50.04407 8.53701 365 ft 22 kts 84°
2026-05-05 18:01 50.04422 8.53924 364 ft 18 kts 84°
2026-05-05 18:01 50.04434 8.54110 366 ft 17 kts 84°
2026-05-05 18:01 50.04446 8.54283 368 ft 16 kts 84°
2026-05-05 18:01 50.04452 8.54437 364 ft 14 kts 91°
2026-05-05 18:02 50.04432 8.54579 368 ft 13 kts 112°
2026-05-05 18:02 50.04382 8.54694 368 ft 12 kts 132°
2026-05-05 18:02 50.04365 8.54717 367 ft 1 kts 139°
2026-05-05 18:02 50.04356 8.54728 364 ft 2 kts 141°
2026-05-05 18:03 50.04341 8.54744 370 ft 3 kts 145°
2026-05-05 18:03 50.04278 8.54792 366 ft 13 kts 158°
2026-05-05 18:03 50.04191 8.54840 369 ft 13 kts 160°
2026-05-05 18:03 50.04108 8.54888 365 ft 12 kts 160°
2026-05-05 18:04 50.04079 8.54905 365 ft 0 kts 160°
2026-05-05 18:06 50.04075 8.54907 366 ft 4 kts 160°
2026-05-05 18:06 50.03957 8.54976 369 ft 16 kts 159°
2026-05-05 18:06 50.03862 8.55047 366 ft 15 kts 134°
2026-05-05 18:07 50.03868 8.55196 368 ft 15 kts 71°
2026-05-05 18:07 50.03906 8.55355 365 ft 16 kts 70°
2026-05-05 18:07 50.03947 8.55529 364 ft 18 kts 70°
2026-05-05 18:07 50.03993 8.55719 363 ft 20 kts 69°
2026-05-05 18:08 50.04042 8.55921 367 ft 21 kts 70°
2026-05-05 18:08 50.04094 8.56139 363 ft 22 kts 69°
2026-05-05 18:08 50.04148 8.56369 363 ft 23 kts 70°
2026-05-05 18:08 50.04205 8.56608 363 ft 24 kts 69°
2026-05-05 18:09 50.04261 8.56843 366 ft 23 kts 70°
2026-05-05 18:09 50.04319 8.57084 369 ft 24 kts 70°
2026-05-05 18:09 50.04379 8.57336 367 ft 25 kts 69°
2026-05-05 18:09 50.04442 8.57598 367 ft 26 kts 70°
2026-05-05 18:10 50.04506 8.57867 367 ft 27 kts 69°
2026-05-05 18:10 50.04567 8.58121 365 ft 23 kts 69°
2026-05-05 18:10 50.04625 8.58363 368 ft 24 kts 70°
2026-05-05 18:10 50.04683 8.58610 366 ft 23 kts 69°
2026-05-05 18:11 50.04733 8.58799 368 ft 12 kts 66°
2026-05-05 18:11 50.04743 8.58834 367 ft 7 kts 66°
2026-05-05 18:11 50.04771 8.58951 365 ft 14 kts 70°
2026-05-05 18:11 50.04807 8.59102 365 ft 16 kts 70°
2026-05-05 18:12 50.04847 8.59270 365 ft 15 kts 70°
2026-05-05 18:12 50.04925 8.59366 365 ft 16 kts
2026-05-05 18:12 50.05034 8.59318 366 ft 17 kts 339°
2026-05-05 18:12 50.05069 8.59170 367 ft 16 kts 255°
2026-05-05 18:13 50.05030 8.58997 364 ft 18 kts 251°
2026-05-05 18:13 50.04985 8.58816 365 ft 18 kts 248°
2026-05-05 18:13 50.04943 8.58642 366 ft 16 kts 250°
2026-05-05 18:13 50.04909 8.58545 366 ft 6 kts 216°
2026-05-05 18:14 50.04862 8.58544 368 ft 7 kts 171°
2026-05-05 18:14 50.04833 8.58564 368 ft 1 kts 157°
2026-05-05 18:14 50.04831 8.58565 369 ft 0 kts 158°